Time,TemperatureF,DewpointF,PressureIn,WindDirection,WindDirectionDegrees,WindSpeedMPH,WindSpeedGustMPH,Humidity,HourlyPrecipIn,Conditions,Clouds,dailyrainin,SoftwareType,DateUTC
2013-03-05 00:03:00,33.4,15.3,29.97,NW,315,8.0,22.0,47,0.00,,,-99.99,WeatherLink 5.7,2013-03-05 05:03:00,
2013-03-05 00:13:00,33.5,15.4,29.97,NW,315,9.0,21.0,47,0.00,,,-99.99,WeatherLink 5.7,2013-03-05 05:13:00,
2013-03-05 00:24:00,33.4,15.3,29.97,WNW,292,7.0,12.0,47,0.00,,,-99.99,WeatherLink 5.7,2013-03-05 05:24:00,
2013-03-05 00:33:00,33.4,15.3,29.97,NW,315,9.0,22.0,47,0.00,,,-99.99,WeatherLink 5.7,2013-03-05 05:33:00,
2013-03-05 00:43:00,33.4,15.3,29.98,NW,315,10.0,18.0,47,0.00,,,-99.99,WeatherLink 5.7,2013-03-05 05:43:00,
2013-03-05 00:53:00,33.3,15.7,29.98,NW,315,12.0,26.0,48,0.00,,,-99.99,WeatherLink 5.7,2013-03-05 05:53:00,
2013-03-05 01:03:00,33.4,15.3,29.98,NW,315,8.0,20.0,47,0.00,,,-99.99,WeatherLink 5.7,2013-03-05 06:03:00,
2013-03-05 01:13:00,33.4,15.8,29.99,NW,315,7.0,16.0,48,0.00,,,-99.99,WeatherLink 5.7,2013-03-05 06:13:00,
2013-03-05 01:23:00,33.3,16.2,29.99,NNW,337,6.0,15.0,49,0.00,,,-99.99,WeatherLink 5.7,2013-03-05 06:23:00,
2013-03-05 01:33:00,33.3,16.2,29.99,NNW,337,7.0,14.0,49,0.00,,,-99.99,WeatherLink 5.7,2013-03-05 06:33:00,
2013-03-05 01:43:00,33.4,16.3,29.98,WNW,292,7.0,11.0,49,0.00,,,-99.99,WeatherLink 5.7,2013-03-05 06:43:00,
2013-03-05 01:53:00,33.3,16.2,29.98,WNW,292,7.0,16.0,49,0.00,,,-99.99,WeatherLink 5.7,2013-03-05 06:53:00,
2013-03-05 02:03:00,33.2,16.5,29.98,NW,315,8.0,15.0,50,0.00,,,-99.99,WeatherLink 5.7,2013-03-05 07:03:00,
2013-03-05 02:13:00,33.2,16.5,29.99,WNW,292,6.0,17.0,50,0.00,,,-99.99,WeatherLink 5.7,2013-03-05 07:13:00,
2013-03-05 02:23:00,33.5,16.8,29.99,NW,315,7.0,15.0,50,0.00,,,-99.99,WeatherLink 5.7,2013-03-05 07:23:00,
2013-03-05 02:33:00,33.3,16.6,29.98,NW,315,8.0,18.0,50,0.00,,,-99.99,WeatherLink 5.7,2013-03-05 07:33:00,
2013-03-05 02:43:00,33.1,16.5,29.98,NW,315,12.0,23.0,50,0.00,,,-99.99,WeatherLink 5.7,2013-03-05 07:43:00,
2013-03-05 02:53:00,33.0,16.8,29.97,NW,315,9.0,17.0,51,0.00,,,-99.99,WeatherLink 5.7,2013-03-05 07:53:00,
2013-03-05 03:03:00,32.8,16.6,29.98,NW,315,7.0,17.0,51,0.00,,,-99.99,WeatherLink 5.7,2013-03-05 08:03:00,
2013-03-05 03:13:00,32.8,16.6,29.98,NW,315,6.0,11.0,51,0.00,,,-99.99,WeatherLink 5.7,2013-03-05 08:13:00,
2013-03-05 03:23:00,32.7,17.0,29.98,NW,315,6.0,13.0,52,0.00,,,-99.99,WeatherLink 5.7,2013-03-05 08:23:00,
2013-03-05 03:33:00,32.7,17.0,29.99,NW,315,6.0,14.0,52,0.00,,,-99.99,WeatherLink 5.7,2013-03-05 08:33:00,
2013-03-05 03:43:00,32.6,16.9,29.98,NW,315,8.0,14.0,52,0.00,,,-99.99,WeatherLink 5.7,2013-03-05 08:43:00,
2013-03-05 03:53:00,32.5,16.8,29.99,NW,315,8.0,17.0,52,0.00,,,-99.99,WeatherLink 5.7,2013-03-05 08:53:00,
2013-03-05 04:03:00,32.5,17.2,29.99,NW,315,6.0,11.0,53,0.00,,,-99.99,WeatherLink 5.7,2013-03-05 09:03:00,
2013-03-05 04:13:00,32.5,17.2,29.99,NW,315,6.0,12.0,53,0.00,,,-99.99,WeatherLink 5.7,2013-03-05 09:13:00,
2013-03-05 04:23:00,32.4,17.2,29.99,NW,315,6.0,13.0,53,0.00,,,-99.99,WeatherLink 5.7,2013-03-05 09:23:00,
2013-03-05 04:33:00,32.4,16.7,30.00,NW,315,6.0,12.0,52,0.00,,,-99.99,WeatherLink 5.7,2013-03-05 09:33:00,
2013-03-05 04:43:00,32.4,17.2,30.00,NW,315,5.0,12.0,53,0.00,,,-99.99,WeatherLink 5.7,2013-03-05 09:43:00,
2013-03-05 04:53:00,32.3,17.1,30.00,NW,315,6.0,11.0,53,0.00,,,-99.99,WeatherLink 5.7,2013-03-05 09:53:00,
2013-03-05 05:03:00,32.3,16.6,30.01,NW,315,5.0,10.0,52,0.00,,,-99.99,WeatherLink 5.7,2013-03-05 10:03:00,
2013-03-05 05:13:00,32.3,17.1,30.01,NW,315,6.0,13.0,53,0.00,,,-99.99,WeatherLink 5.7,2013-03-05 10:13:00,
2013-03-05 05:23:00,32.2,17.0,30.01,NW,315,5.0,10.0,53,0.00,,,-99.99,WeatherLink 5.7,2013-03-05 10:23:00,
2013-03-05 05:33:00,32.3,16.6,30.02,NW,315,4.0,8.0,52,0.00,,,-99.99,WeatherLink 5.7,2013-03-05 10:33:00,
2013-03-05 05:43:00,32.4,17.2,30.02,WNW,292,6.0,11.0,53,0.00,,,-99.99,WeatherLink 5.7,2013-03-05 10:43:00,
2013-03-05 05:53:00,32.3,17.1,30.02,WNW,292,3.0,7.0,53,0.00,,,-99.99,WeatherLink 5.7,2013-03-05 10:53:00,
2013-03-05 06:03:00,32.1,16.9,30.03,WNW,292,4.0,7.0,53,0.00,,,-99.99,WeatherLink 5.7,2013-03-05 11:03:00,
2013-03-05 06:13:00,31.9,17.1,30.03,WNW,292,4.0,9.0,54,0.00,,,-99.99,WeatherLink 5.7,2013-03-05 11:13:00,
2013-03-05 06:23:00,32.3,17.1,30.04,NW,315,2.0,4.0,53,0.00,,,-99.99,WeatherLink 5.7,2013-03-05 11:23:00,
2013-03-05 06:33:00,33.4,17.2,30.04,NW,315,3.0,6.0,51,0.00,,,-99.99,WeatherLink 5.7,2013-03-05 11:33:00,
2013-03-05 06:43:00,33.2,17.5,30.04,WNW,292,4.0,7.0,52,0.00,,,-99.99,WeatherLink 5.7,2013-03-05 11:43:00,
2013-03-05 06:53:00,32.3,17.5,30.04,WNW,292,4.0,9.0,54,0.00,,,-99.99,WeatherLink 5.7,2013-03-05 11:53:00,
2013-03-05 07:03:00,32.1,17.3,30.04,NW,315,4.0,9.0,54,0.00,,,-99.99,WeatherLink 5.7,2013-03-05 12:03:00,
2013-03-05 07:13:00,32.2,17.4,30.05,NW,315,5.0,11.0,54,0.00,,,-99.99,WeatherLink 5.7,2013-03-05 12:13:00,
2013-03-05 07:23:00,32.5,17.2,30.05,NW,315,5.0,12.0,53,0.00,,,-99.99,WeatherLink 5.7,2013-03-05 12:23:00,
2013-03-05 07:33:00,32.6,16.9,30.06,NNW,337,5.0,11.0,52,0.00,,,-99.99,WeatherLink 5.7,2013-03-05 12:33:00,
2013-03-05 07:43:00,33.1,16.9,30.06,NW,315,5.0,12.0,51,0.00,,,-99.99,WeatherLink 5.7,2013-03-05 12:43:00,
2013-03-05 07:53:00,33.4,17.2,30.06,NW,315,6.0,12.0,51,0.00,,,-99.99,WeatherLink 5.7,2013-03-05 12:53:00,
2013-03-05 08:03:00,33.5,16.8,30.06,NW,315,6.0,13.0,50,0.00,,,-99.99,WeatherLink 5.7,2013-03-05 13:03:00,
2013-03-05 08:13:00,33.5,16.8,30.06,NW,315,7.0,14.0,50,0.00,,,-99.99,WeatherLink 5.7,2013-03-05 13:13:00,
2013-03-05 08:23:00,33.9,17.2,30.07,North,0,6.0,14.0,50,0.00,,,-99.99,WeatherLink 5.7,2013-03-05 13:23:00,
2013-03-05 08:33:00,34.8,17.1,30.07,NNW,337,7.0,15.0,48,0.00,,,-99.99,WeatherLink 5.7,2013-03-05 13:33:00,
2013-03-05 08:43:00,34.6,17.4,30.07,North,0,7.0,15.0,49,0.00,,,-99.99,WeatherLink 5.7,2013-03-05 13:43:00,
2013-03-05 08:53:00,34.8,17.1,30.07,North,0,8.0,15.0,48,0.00,,,-99.99,WeatherLink 5.7,2013-03-05 13:53:00,
2013-03-05 09:03:00,35.2,17.4,30.07,NNW,337,5.0,11.0,48,0.00,,,-99.99,WeatherLink 5.7,2013-03-05 14:03:00,
2013-03-05 09:13:00,35.7,17.9,30.07,North,0,6.0,12.0,48,0.00,,,-99.99,WeatherLink 5.7,2013-03-05 14:13:00,
2013-03-05 09:23:00,36.2,17.9,30.07,NW,315,6.0,14.0,47,0.00,,,-99.99,WeatherLink 5.7,2013-03-05 14:23:00,
2013-03-05 09:33:00,36.3,18.0,30.07,North,0,7.0,16.0,47,0.00,,,-99.99,WeatherLink 5.7,2013-03-05 14:33:00,
2013-03-05 09:43:00,37.4,17.4,30.06,North,0,5.0,12.0,44,0.00,,,-99.99,WeatherLink 5.7,2013-03-05 14:43:00,
2013-03-05 09:53:00,37.5,18.1,30.07,NNW,337,7.0,13.0,45,0.00,,,-99.99,WeatherLink 5.7,2013-03-05 14:53:00,
2013-03-05 10:03:00,37.4,17.4,30.06,NW,315,8.0,19.0,44,0.00,,,-99.99,WeatherLink 5.7,2013-03-05 15:03:00,
2013-03-05 10:13:00,37.9,17.9,30.06,NNW,337,7.0,15.0,44,0.00,,,-99.99,WeatherLink 5.7,2013-03-05 15:13:00,
2013-03-05 10:23:00,38.3,18.3,30.06,North,0,6.0,13.0,44,0.00,,,-99.99,WeatherLink 5.7,2013-03-05 15:23:00,
2013-03-05 10:33:00,39.4,18.2,30.05,North,0,4.0,14.0,42,0.00,,,-99.99,WeatherLink 5.7,2013-03-05 15:33:00,
2013-03-05 10:43:00,39.7,18.5,30.05,NW,315,7.0,13.0,42,0.00,,,-99.99,WeatherLink 5.7,2013-03-05 15:43:00,
2013-03-05 10:53:00,39.9,18.6,30.05,North,0,4.0,10.0,42,0.00,,,-99.99,WeatherLink 5.7,2013-03-05 15:53:00,
2013-03-05 11:03:00,40.5,18.0,30.05,NNW,337,6.0,12.0,40,0.00,,,-99.99,WeatherLink 5.7,2013-03-05 16:03:00,
2013-03-05 11:13:00,40.4,19.1,30.04,NNE,22,7.0,16.0,42,0.00,,,-99.99,WeatherLink 5.7,2013-03-05 16:13:00,
2013-03-05 11:23:00,41.0,18.5,30.04,NNE,22,6.0,13.0,40,0.00,,,-99.99,WeatherLink 5.7,2013-03-05 16:23:00,
2013-03-05 11:33:00,41.5,18.4,30.04,NW,315,5.0,14.0,39,0.00,,,-99.99,WeatherLink 5.7,2013-03-05 16:33:00,
2013-03-05 11:43:00,41.7,19.1,30.04,NNW,337,4.0,11.0,40,0.00,,,-99.99,WeatherLink 5.7,2013-03-05 16:43:00,
2013-03-05 11:53:00,42.2,19.6,30.04,NNE,22,4.0,12.0,40,0.00,,,-99.99,WeatherLink 5.7,2013-03-05 16:53:00,
2013-03-05 12:03:00,44.0,19.4,30.04,North,0,5.0,12.0,37,0.00,,,-99.99,WeatherLink 5.7,2013-03-05 17:03:00,
2013-03-05 12:13:00,43.1,19.8,30.04,NE,45,5.0,10.0,39,0.00,,,-99.99,WeatherLink 5.7,2013-03-05 17:13:00,
2013-03-05 12:23:00,43.3,18.1,30.04,NE,45,2.0,9.0,36,0.00,,,-99.99,WeatherLink 5.7,2013-03-05 17:23:00,
2013-03-05 12:33:00,44.2,18.9,30.03,NNE,22,4.0,8.0,36,0.00,,,-99.99,WeatherLink 5.7,2013-03-05 17:33:00,
2013-03-05 12:43:00,44.1,18.8,30.03,North,0,6.0,13.0,36,0.00,,,-99.99,WeatherLink 5.7,2013-03-05 17:43:00,
2013-03-05 12:53:00,44.2,18.9,30.02,North,0,6.0,12.0,36,0.00,,,-99.99,WeatherLink 5.7,2013-03-05 17:53:00,
2013-03-05 13:03:00,45.4,17.9,30.02,North,0,3.0,11.0,33,0.00,,,-99.99,WeatherLink 5.7,2013-03-05 18:03:00,
2013-03-05 13:13:00,45.7,19.6,30.02,North,0,6.0,12.0,35,0.00,,,-99.99,WeatherLink 5.7,2013-03-05 18:13:00,
2013-03-05 13:23:00,45.2,19.1,30.02,North,0,4.0,11.0,35,0.00,,,-99.99,WeatherLink 5.7,2013-03-05 18:23:00,
2013-03-05 13:33:00,45.3,19.2,30.02,NNE,22,4.0,9.0,35,0.00,,,-99.99,WeatherLink 5.7,2013-03-05 18:33:00,
2013-03-05 13:43:00,45.4,19.3,30.02,North,0,5.0,11.0,35,0.00,,,-99.99,WeatherLink 5.7,2013-03-05 18:43:00,
2013-03-05 13:53:00,46.3,19.4,30.02,North,0,4.0,8.0,34,0.00,,,-99.99,WeatherLink 5.7,2013-03-05 18:53:00,
2013-03-05 14:03:00,47.3,19.6,30.02,North,0,4.0,8.0,33,0.00,,,-99.99,WeatherLink 5.7,2013-03-05 19:03:00,
2013-03-05 14:13:00,46.9,19.3,30.02,East,90,3.0,7.0,33,0.00,,,-99.99,WeatherLink 5.7,2013-03-05 19:13:00,
2013-03-05 14:23:00,47.2,19.5,30.02,NW,315,3.0,11.0,33,0.00,,,-99.99,WeatherLink 5.7,2013-03-05 19:23:00,
2013-03-05 14:33:00,47.4,19.7,30.02,NW,315,2.0,7.0,33,0.00,,,-99.99,WeatherLink 5.7,2013-03-05 19:33:00,
2013-03-05 14:43:00,48.5,19.9,30.02,NNW,337,3.0,9.0,32,0.00,,,-99.99,WeatherLink 5.7,2013-03-05 19:43:00,
2013-03-05 14:53:00,48.3,20.5,30.02,North,0,4.0,11.0,33,0.00,,,-99.99,WeatherLink 5.7,2013-03-05 19:53:00,
2013-03-05 15:03:00,47.2,19.5,30.02,NNE,22,5.0,13.0,33,0.00,,,-99.99,WeatherLink 5.7,2013-03-05 20:03:00,
2013-03-05 15:13:00,48.1,19.6,30.02,NW,315,4.0,11.0,32,0.00,,,-99.99,WeatherLink 5.7,2013-03-05 20:13:00,
2013-03-05 15:23:00,47.7,20.0,30.02,WNW,292,4.0,10.0,33,0.00,,,-99.99,WeatherLink 5.7,2013-03-05 20:23:00,
2013-03-05 15:33:00,47.8,20.1,30.02,WNW,292,4.0,9.0,33,0.00,,,-99.99,WeatherLink 5.7,2013-03-05 20:33:00,
2013-03-05 15:43:00,48.3,19.8,30.01,WNW,292,3.0,7.0,32,0.00,,,-99.99,WeatherLink 5.7,2013-03-05 20:43:00,
2013-03-05 15:53:00,49.8,20.3,30.01,West,270,2.0,6.0,31,0.00,,,-99.99,WeatherLink 5.7,2013-03-05 20:53:00,
2013-03-05 16:03:00,51.4,20.2,30.01,ENE,67,4.0,9.0,29,0.00,,,-99.99,WeatherLink 5.7,2013-03-05 21:03:00,
2013-03-05 16:13:00,49.2,19.8,30.01,ENE,67,3.0,9.0,31,0.00,,,-99.99,WeatherLink 5.7,2013-03-05 21:13:00,
2013-03-05 16:23:00,48.7,18.6,30.01,ENE,67,3.0,9.0,30,0.00,,,-99.99,WeatherLink 5.7,2013-03-05 21:23:00,
2013-03-05 16:33:00,47.9,19.4,30.01,NE,45,3.0,8.0,32,0.00,,,-99.99,WeatherLink 5.7,2013-03-05 21:33:00,
2013-03-05 16:43:00,48.0,19.5,30.01,North,0,2.0,8.0,32,0.00,,,-99.99,WeatherLink 5.7,2013-03-05 21:43:00,
2013-03-05 16:53:00,48.5,19.2,30.01,East,90,3.0,8.0,31,0.00,,,-99.99,WeatherLink 5.7,2013-03-05 21:53:00,
2013-03-05 17:03:00,48.3,19.8,30.01,ENE,67,3.0,8.0,32,0.00,,,-99.99,WeatherLink 5.7,2013-03-05 22:03:00,
2013-03-05 17:13:00,48.3,20.5,30.01,East,90,5.0,10.0,33,0.00,,,-99.99,WeatherLink 5.7,2013-03-05 22:13:00,
2013-03-05 17:23:00,47.8,20.1,30.01,ENE,67,4.0,8.0,33,0.00,,,-99.99,WeatherLink 5.7,2013-03-05 22:23:00,
2013-03-05 17:33:00,47.3,19.6,30.01,NE,45,3.0,8.0,33,0.00,,,-99.99,WeatherLink 5.7,2013-03-05 22:33:00,
2013-03-05 17:43:00,47.1,19.4,30.02,NE,45,2.0,8.0,33,0.00,,,-99.99,WeatherLink 5.7,2013-03-05 22:43:00,
2013-03-05 17:53:00,47.6,19.9,30.03,East,90,5.0,11.0,33,0.00,,,-99.99,WeatherLink 5.7,2013-03-05 22:53:00,
2013-03-05 18:03:00,47.1,19.4,30.03,East,90,5.0,10.0,33,0.00,,,-99.99,WeatherLink 5.7,2013-03-05 23:03:00,
2013-03-05 18:13:00,46.8,19.2,30.03,East,90,5.0,14.0,33,0.00,,,-99.99,WeatherLink 5.7,2013-03-05 23:13:00,
2013-03-05 18:23:00,46.3,18.7,30.04,East,90,3.0,10.0,33,0.00,,,-99.99,WeatherLink 5.7,2013-03-05 23:23:00,
2013-03-05 18:33:00,45.9,19.1,30.04,ENE,67,3.0,8.0,34,0.00,,,-99.99,WeatherLink 5.7,2013-03-05 23:33:00,
2013-03-05 18:43:00,45.4,19.3,30.03,ENE,67,4.0,8.0,35,0.00,,,-99.99,WeatherLink 5.7,2013-03-05 23:43:00,
2013-03-05 18:53:00,45.2,19.1,30.04,ENE,67,3.0,7.0,35,0.00,,,-99.99,WeatherLink 5.7,2013-03-05 23:53:00,
2013-03-05 19:03:00,46.1,19.2,30.05,ENE,67,2.0,6.0,34,0.00,,,-99.99,WeatherLink 5.7,2013-03-06 00:03:00,
2013-03-05 19:13:00,48.7,20.8,30.05,East,90,2.0,6.0,33,0.00,,,-99.99,WeatherLink 5.7,2013-03-06 00:13:00,
2013-03-05 19:23:00,48.6,22.1,30.05,East,90,2.0,6.0,35,0.00,,,-99.99,WeatherLink 5.7,2013-03-06 00:23:00,
2013-03-05 19:33:00,47.0,22.0,30.05,ESE,112,2.0,5.0,37,0.00,,,-99.99,WeatherLink 5.7,2013-03-06 00:33:00,
2013-03-05 19:43:00,46.8,21.9,30.05,ESE,112,2.0,5.0,37,0.00,,,-99.99,WeatherLink 5.7,2013-03-06 00:43:00,
2013-03-05 19:53:00,46.4,22.1,30.05,ESE,112,1.0,5.0,38,0.00,,,-99.99,WeatherLink 5.7,2013-03-06 00:53:00,
2013-03-05 20:03:00,44.6,21.7,30.04,ESE,112,0.0,1.0,40,0.00,,,-99.99,WeatherLink 5.7,2013-03-06 01:03:00,
2013-03-05 20:13:00,43.7,22.1,30.04,ESE,112,1.0,3.0,42,0.00,,,-99.99,WeatherLink 5.7,2013-03-06 01:13:00,
2013-03-05 20:23:00,43.4,21.2,30.04,ESE,112,2.0,6.0,41,0.00,,,-99.99,WeatherLink 5.7,2013-03-06 01:23:00,
2013-03-05 20:33:00,43.5,21.3,30.04,ESE,112,2.0,5.0,41,0.00,,,-99.99,WeatherLink 5.7,2013-03-06 01:33:00,
2013-03-05 20:43:00,46.4,21.5,30.04,ESE,112,2.0,6.0,37,0.00,,,-99.99,WeatherLink 5.7,2013-03-06 01:43:00,
2013-03-05 20:53:00,46.4,23.4,30.05,ESE,112,1.0,3.0,40,0.00,,,-99.99,WeatherLink 5.7,2013-03-06 01:53:00,
2013-03-05 21:03:00,44.7,23.0,30.04,ESE,112,0.0,3.0,42,0.00,,,-99.99,WeatherLink 5.7,2013-03-06 02:03:00,
2013-03-05 21:13:00,43.8,22.7,30.05,ESE,112,1.0,3.0,43,0.00,,,-99.99,WeatherLink 5.7,2013-03-06 02:13:00,
2013-03-05 21:23:00,43.3,22.8,30.05,ESE,112,1.0,3.0,44,0.00,,,-99.99,WeatherLink 5.7,2013-03-06 02:23:00,
2013-03-05 21:33:00,43.1,21.5,30.05,ESE,112,1.0,3.0,42,0.00,,,-99.99,WeatherLink 5.7,2013-03-06 02:33:00,
2013-03-05 21:43:00,43.5,23.0,30.05,ESE,112,1.0,4.0,44,0.00,,,-99.99,WeatherLink 5.7,2013-03-06 02:43:00,
2013-03-05 21:53:00,44.4,22.1,30.05,ESE,112,2.0,5.0,41,0.00,,,-99.99,WeatherLink 5.7,2013-03-06 02:53:00,
2013-03-05 22:03:00,45.7,23.3,30.05,ESE,112,2.0,7.0,41,0.00,,,-99.99,WeatherLink 5.7,2013-03-06 03:03:00,
2013-03-05 22:13:00,46.5,23.4,30.05,ESE,112,2.0,6.0,40,0.00,,,-99.99,WeatherLink 5.7,2013-03-06 03:13:00,
2013-03-05 22:23:00,46.5,24.0,30.04,ESE,112,2.0,6.0,41,0.00,,,-99.99,WeatherLink 5.7,2013-03-06 03:23:00,
2013-03-05 22:33:00,45.9,23.5,30.04,ESE,112,2.0,6.0,41,0.00,,,-99.99,WeatherLink 5.7,2013-03-06 03:33:00,
2013-03-05 22:43:00,46.9,24.4,30.04,SE,135,2.0,6.0,41,0.00,,,-99.99,WeatherLink 5.7,2013-03-06 03:43:00,
2013-03-05 22:53:00,46.4,23.9,30.04,SE,135,2.0,6.0,41,0.00,,,-99.99,WeatherLink 5.7,2013-03-06 03:53:00,
2013-03-05 23:03:00,46.2,23.8,30.03,SE,135,3.0,6.0,41,0.00,,,-99.99,WeatherLink 5.7,2013-03-06 04:03:00,
2013-03-05 23:13:00,46.1,23.7,30.03,SE,135,3.0,6.0,41,0.00,,,-99.99,WeatherLink 5.7,2013-03-06 04:13:00,
2013-03-05 23:23:00,45.3,25.2,30.03,SE,135,3.0,7.0,45,0.00,,,-99.99,WeatherLink 5.7,2013-03-06 04:23:00,
2013-03-05 23:33:00,44.4,24.9,30.03,SE,135,4.0,7.0,46,0.00,,,-99.99,WeatherLink 5.7,2013-03-06 04:33:00,
2013-03-05 23:43:00,44.8,25.3,30.03,SE,135,4.0,7.0,46,0.00,,,-99.99,WeatherLink 5.7,2013-03-06 04:43:00,
2013-03-05 23:53:00,44.8,25.3,30.02,ESE,112,3.0,9.0,46,0.00,,,-99.99,WeatherLink 5.7,2013-03-06 04:53:00,